This is the latest recevied weather packets stored in our database for station/object WW5JC. If no packets are shown the sender has not sent any weather packets the latest 10 day(s).
| Time | Temp. | Humidity | Pressure | Rain* | Wind** | Luminosity | Snow |
|---|---|---|---|---|---|---|---|
| 1788492285 | 27.22° C | 80% | 1015.5 hPa | 0 mm | - | 0 W/m² | - |
| 1788491984 | 27.78° C | 79% | 1015.4 hPa | 0 mm | - | 0 W/m² | - |
| 1788491680 | 27.78° C | 79% | 1015.4 hPa | 0 mm | - | 0 W/m² | - |
| 1788491376 | 27.78° C | 79% | 1015.4 hPa | 0 mm | - | 0 W/m² | - |
| 1788490766 | 27.78° C | 77% | 1015.2 hPa | 0 mm | - | 0 W/m² | - |
| 1788490463 | 28.33° C | 77% | 1015.1 hPa | 0 mm | - | 0 W/m² | - |
| 1788489553 | 28.89° C | 73% | 1015 hPa | 0 mm | - | 0 W/m² | - |
| 1788489249 | 28.89° C | 74% | 1015 hPa | 0 mm | - | 0 W/m² | - |
| 1788488645 | 28.33° C | 75% | 1015 hPa | 0 mm | - | 0 W/m² | - |
| 1788488341 | 27.78° C | 77% | 1015.1 hPa | 0 mm | - | 0 W/m² | - |
| 1788487732 | 28.89° C | 75% | 1014.5 hPa | 0 mm | - | 0 W/m² | - |
| 1788487125 | 28.89° C | 74% | 1014.4 hPa | 0 mm | - | 0 W/m² | - |
| 1788486821 | 28.89° C | 73% | 1014.5 hPa | 0 mm | - | 0 W/m² | - |
| 1788485911 | 29.44° C | 72% | 1014.1 hPa | 0 mm | - | 0 W/m² | - |
| 1788485302 | 30° C | 71% | 1013.8 hPa | 0 mm | - | 0 W/m² | - |
| 1788484997 | 30° C | 70% | 1013.8 hPa | 0 mm | - | 0 W/m² | - |
| 1788484696 | 30° C | 69% | 1013.7 hPa | 0 mm | - | 0 W/m² | - |
| 1788484391 | 30.56° C | 68% | 1013.6 hPa | 0 mm | - | 0 W/m² | - |
| 1788483783 | 30.56° C | 67% | 1013.6 hPa | 0 mm | - | 0 W/m² | - |
| 1788482259 | 31.11° C | 64% | 1013.7 hPa | 0 mm | - | 4 W/m² | - |
| 1788481955 | 31.67° C | 64% | 1013.7 hPa | 0 mm | - | 7 W/m² | - |
| 1788480130 | 32.22° C | 60% | 1013.4 hPa | 0 mm | - | 23 W/m² | - |
| 1788479824 | 32.22° C | 60% | 1013.4 hPa | 0 mm | - | 25 W/m² | - |
| 1788479521 | 32.78° C | 59% | 1013.3 hPa | 0 mm | - | 28 W/m² | - |
| 1788474660 | 33.33° C | 56% | 1013.7 hPa | 0 mm | - | 120 W/m² | - |
* Rain latest hour (hover to see other rain measurements)
** Current wind speed in m/s (hover to see current wind gust speed)